TimeCDT,TemperatureF,Dew PointF,Humidity,Sea Level PressureIn,VisibilityMPH,Wind Direction,Wind SpeedMPH,Gust SpeedMPH,PrecipitationIn,Events,Conditions,WindDirDegrees,DateUTC
12:15 AM,44.6,44.1,98,30.14,7.0,NNE,12.7,-,0.03,Rain,Rain,20,2012-10-06 05:15:00
12:35 AM,44.4,43.9,98,30.15,4.0,NNE,8.1,-,0.13,Rain,Rain,20,2012-10-06 05:35:00
12:55 AM,44.8,44.2,98,30.15,10.0,North,10.4,-,0.14,Rain,Light Rain,360,2012-10-06 05:55:00
1:15 AM,44.8,43.7,96,30.15,10.0,North,10.4,-,0.01,,Drizzle,10,2012-10-06 06:15:00
1:35 AM,44.8,43.9,97,30.15,10.0,North,11.5,16.1,0.01,,Overcast,10,2012-10-06 06:35:00
1:55 AM,45.1,44.4,97,30.15,10.0,North,8.1,-,0.01,,Overcast,10,2012-10-06 06:55:00
2:15 AM,45.0,44.4,98,30.16,10.0,North,9.2,-,N/A,,Overcast,10,2012-10-06 07:15:00
2:35 AM,44.8,44.1,97,30.16,10.0,North,9.2,16.1,N/A,,Overcast,360,2012-10-06 07:35:00
2:55 AM,44.6,43.7,97,30.15,10.0,NNE,6.9,-,N/A,,Scattered Clouds,20,2012-10-06 07:55:00
3:15 AM,44.2,43.3,97,30.16,10.0,North,5.8,-,N/A,,Scattered Clouds,10,2012-10-06 08:15:00
3:35 AM,44.1,43.3,97,30.16,10.0,North,6.9,-,N/A,,Scattered Clouds,350,2012-10-06 08:35:00
3:55 AM,43.7,42.8,97,30.16,10.0,North,5.8,-,N/A,,Clear,350,2012-10-06 08:55:00
4:35 AM,43.2,42.4,97,30.17,10.0,NNW,3.5,-,N/A,,Scattered Clouds,340,2012-10-06 09:35:00
4:55 AM,42.8,42.4,99,30.17,10.0,North,4.6,-,N/A,,Scattered Clouds,360,2012-10-06 09:55:00
5:15 AM,42.4,41.9,98,30.18,10.0,North,3.5,-,N/A,,Clear,360,2012-10-06 10:15:00
5:35 AM,41.9,41.7,99,30.19,10.0,North,3.5,-,N/A,,Clear,350,2012-10-06 10:35:00
5:55 AM,41.5,41.5,100,30.18,7.0,NNW,3.5,-,N/A,,Clear,340,2012-10-06 10:55:00
6:15 AM,41.0,40.8,99,30.19,7.0,North,4.6,-,N/A,,Clear,350,2012-10-06 11:15:00
6:35 AM,41.0,41.0,100,30.20,7.0,NW,3.5,-,N/A,,Clear,320,2012-10-06 11:35:00
6:55 AM,41.0,41.0,100,30.22,5.0,NW,3.5,-,N/A,,Clear,320,2012-10-06 11:55:00
7:15 AM,41.0,41.0,100,30.23,7.0,NW,3.5,-,N/A,,Clear,310,2012-10-06 12:15:00
7:35 AM,41.9,41.4,98,30.23,10.0,NNW,3.5,-,N/A,,Clear,340,2012-10-06 12:35:00
7:55 AM,42.8,41.7,96,30.23,10.0,North,5.8,-,N/A,,Clear,350,2012-10-06 12:55:00
8:15 AM,43.7,41.5,92,30.23,10.0,North,9.2,-,N/A,,Clear,360,2012-10-06 13:15:00
8:35 AM,44.1,41.7,91,30.23,10.0,NNE,8.1,-,N/A,,Clear,20,2012-10-06 13:35:00
9:15 AM,46.0,41.5,84,30.24,10.0,North,6.9,-,N/A,,Clear,10,2012-10-06 14:15:00
9:35 AM,47.3,40.8,78,30.24,10.0,NE,5.8,-,N/A,,Clear,40,2012-10-06 14:35:00
9:55 AM,48.6,40.1,73,30.23,10.0,ENE,6.9,-,N/A,,Clear,60,2012-10-06 14:55:00
10:15 AM,49.8,39.9,69,30.23,10.0,NE,4.6,-,N/A,,Clear,40,2012-10-06 15:15:00
10:35 AM,51.1,40.1,66,30.23,10.0,NE,8.1,-,N/A,,Clear,50,2012-10-06 15:35:00
10:55 AM,51.6,38.8,62,30.22,10.0,NNE,5.8,-,N/A,,Clear,30,2012-10-06 15:55:00
11:15 AM,52.3,37.4,57,30.21,10.0,NNE,6.9,-,N/A,,Clear,30,2012-10-06 16:15:00
11:35 AM,53.2,36.0,52,30.21,10.0,NE,8.1,-,N/A,,Clear,50,2012-10-06 16:35:00
11:55 AM,54.9,36.0,49,30.21,10.0,NNW,13.8,18.4,N/A,,Clear,330,2012-10-06 16:55:00
12:15 PM,55.6,35.4,47,30.19,10.0,NNE,8.1,-,N/A,,Clear,20,2012-10-06 17:15:00
12:35 PM,55.6,35.2,46,30.18,10.0,North,3.5,9.2,N/A,,Clear,350,2012-10-06 17:35:00
12:55 PM,56.1,34.3,44,30.18,10.0,North,10.4,-,N/A,,Clear,10,2012-10-06 17:55:00
1:15 PM,56.8,33.4,41,30.17,10.0,North,8.1,-,N/A,,Clear,10,2012-10-06 18:15:00
1:35 PM,57.4,33.8,41,30.17,10.0,NW,6.9,-,N/A,,Clear,310,2012-10-06 18:35:00
1:55 PM,57.7,32.4,38,30.17,10.0,North,11.5,-,N/A,,Clear,10,2012-10-06 18:55:00
2:15 PM,58.5,33.8,39,30.16,10.0,North,10.4,-,N/A,,Clear,360,2012-10-06 19:15:00
2:35 PM,58.5,33.3,39,30.16,10.0,NW,5.8,-,N/A,,Clear,320,2012-10-06 19:35:00
2:55 PM,58.8,32.7,37,30.16,10.0,North,8.1,-,N/A,,Clear,10,2012-10-06 19:55:00
3:15 PM,57.9,35.1,42,30.16,10.0,NNW,6.9,-,N/A,,Clear,330,2012-10-06 20:15:00
3:35 PM,57.4,34.9,43,30.16,10.0,NNW,10.4,-,N/A,,Clear,340,2012-10-06 20:35:00
3:55 PM,56.3,34.7,44,30.16,10.0,NNW,9.2,-,N/A,,Mostly Cloudy,330,2012-10-06 20:55:00
4:15 PM,55.6,35.4,47,30.16,10.0,North,8.1,-,N/A,,Overcast,350,2012-10-06 21:15:00
4:35 PM,55.4,36.9,50,30.16,10.0,NNW,8.1,-,N/A,,Overcast,340,2012-10-06 21:35:00
5:15 PM,54.7,36.9,51,30.16,10.0,North,9.2,-,N/A,,Overcast,360,2012-10-06 22:15:00
5:35 PM,54.1,37.8,54,30.15,10.0,NNW,6.9,-,N/A,,Overcast,340,2012-10-06 22:35:00
6:15 PM,53.2,38.1,57,30.14,10.0,North,11.5,-,N/A,,Overcast,360,2012-10-06 23:15:00
6:35 PM,52.7,38.5,58,30.15,10.0,North,12.7,-,N/A,,Overcast,350,2012-10-06 23:35:00
6:55 PM,52.3,38.5,59,30.15,10.0,North,9.2,-,N/A,,Overcast,350,2012-10-06 23:55:00
7:15 PM,52.0,38.7,60,30.16,10.0,North,6.9,-,N/A,,Overcast,350,2012-10-07 00:15:00
7:35 PM,51.8,38.8,61,30.18,10.0,NW,4.6,-,N/A,,Overcast,320,2012-10-07 00:35:00
7:55 PM,51.3,40.3,66,30.17,10.0,NNW,3.5,-,N/A,,Overcast,330,2012-10-07 00:55:00
8:15 PM,51.1,39.6,65,30.18,10.0,Calm,Calm,-,N/A,,Overcast,0,2012-10-07 01:15:00
8:35 PM,50.9,40.3,67,30.19,10.0,NW,3.5,-,N/A,,Overcast,320,2012-10-07 01:35:00
8:55 PM,50.5,40.6,69,30.19,10.0,Calm,Calm,-,N/A,,Overcast,0,2012-10-07 01:55:00
9:15 PM,50.2,41.9,73,30.20,10.0,NW,3.5,-,N/A,,Overcast,320,2012-10-07 02:15:00
9:35 PM,50.2,41.0,71,30.20,10.0,NW,4.6,-,N/A,,Overcast,320,2012-10-07 02:35:00
9:55 PM,50.0,41.0,71,30.20,10.0,NNW,4.6,-,N/A,,Overcast,330,2012-10-07 02:55:00
10:15 PM,50.0,41.0,71,30.21,10.0,NW,5.8,-,N/A,,Overcast,310,2012-10-07 03:15:00
10:35 PM,49.8,41.5,73,30.20,10.0,NW,4.6,-,N/A,,Overcast,320,2012-10-07 03:35:00
10:55 PM,49.6,40.6,71,30.19,10.0,NNW,8.1,-,N/A,,Mostly Cloudy,340,2012-10-07 03:55:00
11:15 PM,49.3,41.0,73,30.18,10.0,NNW,4.6,-,N/A,,Overcast,340,2012-10-07 04:15:00
11:35 PM,49.3,41.2,74,30.17,10.0,North,8.1,-,N/A,,Overcast,350,2012-10-07 04:35:00
11:55 PM,48.9,41.2,75,30.17,10.0,NNW,8.1,-,N/A,,Overcast,340,2012-10-07 04:55:00